GFSCGP_925_temp_063.txt.gz
Temp
21 23 23 23 22 23 23 23 23 23 22 22 21 20 22 20 17 18 17 17 17 17 17 15 15 16 16 16 16 17 17 17 16 16 16 16 16 15 15 15 14 14 14 14
21 22 21 21 21 22 22 23 23 22 21 21 20 21 21 19 18 17 18 17 17 16 17 16 15 15 16 16 16 16 17 17 17 16 16 16 16 15 15 15 14 14 13 13
21 22 21 22 21 22 22 22 22 22 20 20 19 21 21 19 18 18 17 17 17 17 18 17 15 14 16 16 17 17 17 17 16 16 16 16 15 15 15 14 14 13 13 12
22 21 22 22 22 22 22 21 21 21 21 22 19 21 20 19 19 18 17 15 16 16 16 16 16 14 16 17 17 17 17 16 16 16 16 15 15 14 14 13 13 13 12 12
21 21 22 22 21 22 21 19 19 19 18 19 18 20 21 18 20 19 18 16 15 15 16 16 16 15 15 17 17 17 16 16 16 16 15 15 14 14 13 12 12 12 12 11
20 20 20 20 18 19 17 18 16 15 17 19 18 19 21 19 19 18 18 16 15 15 15 15 14 15 16 16 16 16 15 16 15 15 14 14 13 13 12 12 11 11 10 10
19 19 19 20 19 19 19 18 19 20 19 20 17 18 20 18 18 16 15 15 16 15 15 14 15 14 14 15 15 15 15 15 14 14 13 13 12 11 11 10 9 9 7 7
19 20 19 18 19 19 18 19 19 21 20 19 16 18 20 17 16 15 14 14 15 14 14 14 13 13 14 15 15 15 14 14 13 13 12 11 11 10 10 9 8 7 7 6
18 19 18 17 18 18 18 18 16 16 14 17 17 18 19 17 17 15 15 15 14 14 14 14 13 12 12 13 13 14 13 13 12 11 11 11 10 9 9 8 7 7 6 5
17 19 17 18 17 16 18 16 18 16 19 19 18 17 20 18 17 15 14 14 13 13 13 13 12 11 11 12 12 12 12 11 11 10 10 10 9 9 8 7 6 5 5 4
16 17 18 18 17 17 17 17 14 15 16 19 19 20 16 17 15 15 14 13 13 13 12 12 11 10 11 11 11 11 11 10 10 10 10 9 9 7 6 5 5 5 4 4
14 15 17 17 15 15 16 16 16 18 17 13 15 18 15 15 14 14 13 13 12 12 12 11 10 10 10 10 10 10 10 10 9 9 8 8 7 6 5 4 4 4 3 3
15 15 16 18 16 16 16 15 13 12 12 14 17 19 14 13 13 13 13 13 12 12 12 12 11 10 10 9 9 9 9 9 8 7 7 6 6 5 4 4 3 3 3 3
14 12 16 17 17 15 16 15 13 15 15 15 16 17 16 14 13 13 13 12 13 12 12 12 12 11 10 9 8 8 8 7 7 7 6 6 5 4 3 3 3 2 2 2
13 15 14 14 14 14 15 16 13 14 14 17 16 14 15 14 13 13 12 12 13 13 12 11 11 11 10 9 8 7 7 7 6 6 5 5 4 3 3 2 2 2 1 1
11 13 13 15 13 13 14 14 13 13 13 13 13 14 13 12 12 13 12 12 12 11 11 11 10 10 9 8 7 7 7 6 6 5 4 4 3 2 2 2 1 1 1 2
12 11 13 15 11 13 15 14 13 13 13 14 15 14 12 12 12 12 12 10 10 10 10 10 9 8 7 6 6 6 6 5 5 4 3 3 2 1 1 1 1 1 1 1
11 11 10 13 13 15 16 13 13 14 14 12 12 11 11 12 12 11 10 10 11 9 9 9 8 7 6 6 6 6 5 4 4 3 2 2 1 1 1 1 1 1 2 2
9 10 9 12 12 13 14 12 13 14 15 12 12 11 11 10 10 11 10 10 9 8 8 7 6 6 6 6 5 5 4 4 3 2 2 1 1 1 1 1 1 1 1 2
8 8 11 9 11 12 15 13 13 13 14 10 11 11 11 10 12 11 10 8 8 7 7 6 6 6 5 5 5 4 3 2 2 1 1 1 0 0 0 0 1 1 2 1
9 8 10 9 10 11 11 12 12 14 15 10 10 10 10 10 10 9 8 8 7 6 6 6 6 5 5 5 4 3 2 2 2 2 1 0 -0 -0 -0 1 1 2 1 1
11 9 9 7 9 12 10 11 13 12 9 9 9 9 9 9 8 7 7 7 6 5 5 6 5 5 5 4 3 2 2 2 2 1 0 -0 -0 -0 0 1 1 1 1 1
11 11 11 10 11 10 9 11 9 8 9 9 9 8 8 7 7 6 6 6 5 5 5 5 5 5 5 4 3 2 2 2 1 0 -0 -1 -1 1 1 1 1 0 1 1
9 8 10 10 10 8 10 9 9 8 8 8 8 8 7 7 6 6 5 5 5 5 5 5 5 4 4 4 3 3 2 1 1 -0 -1 -1 1 1 1 1 0 0 1 1
9 8 9 8 8 9 9 8 8 8 7 7 7 7 7 6 6 5 5 5 5 4 5 5 4 3 3 3 3 3 2 1 0 -1 -1 0 1 1 0 0 0 0 0 1
7 9 10 11 10 10 9 8 7 7 7 7 7 7 7 6 6 5 5 5 5 4 5 4 4 4 4 3 3 2 2 1 -0 -1 -0 0 0 -0 -0 0 0 0 0 1

GFSCGP_925_temp_069.txt.gz
Temp
27 27 27 28 30 30 29 29 28 26 26 26 28 29 30 30 28 26 27 28 29 28 27 25 24 23 23 22 22 21 21 20 20 19 19 19 19 18 18 17 17 16 16 15
26 26 29 30 30 29 29 29 28 28 25 25 25 27 29 30 28 27 27 27 28 28 27 25 24 23 22 22 22 22 21 20 20 19 19 20 20 19 18 17 16 15 15 15
27 28 28 28 27 28 28 28 28 27 25 25 25 26 29 27 26 26 26 26 26 28 27 26 24 23 22 22 21 21 21 20 19 19 19 18 18 17 16 16 16 15 15 14
27 26 26 27 27 28 27 28 26 27 26 25 26 26 29 28 27 27 26 25 25 25 27 26 24 23 22 22 21 21 21 21 19 19 18 18 18 18 19 18 17 16 15 14
26 26 25 25 27 27 27 26 27 26 27 27 27 25 29 27 27 26 25 24 23 24 25 25 24 23 22 22 21 20 20 20 20 19 17 17 17 18 18 17 16 15 15 14
26 26 26 26 24 26 25 26 26 26 26 25 28 26 29 27 25 24 24 23 22 22 24 25 24 23 22 21 20 19 19 19 19 18 18 17 16 17 17 16 16 15 15 14
25 25 24 25 24 24 25 26 26 26 25 26 26 25 27 24 23 22 23 22 22 22 22 23 23 21 21 20 19 18 18 18 18 18 17 17 16 15 15 15 15 14 14 13
26 23 24 24 25 26 25 27 27 26 27 28 24 25 26 23 23 22 22 22 22 22 22 22 22 21 21 20 19 19 18 18 18 18 17 16 15 14 14 14 13 13 12 12
27 23 23 23 24 24 25 24 25 26 26 26 28 26 24 23 23 23 22 22 21 21 21 21 20 20 19 19 18 18 18 18 17 16 16 15 15 14 13 12 12 12 11 11
26 24 23 22 23 23 24 24 24 25 25 25 27 27 27 23 23 23 22 21 21 21 21 20 19 18 18 17 17 16 16 16 15 15 15 14 14 13 13 12 12 11 11 10
25 26 22 22 23 25 23 24 24 24 25 25 26 26 26 25 24 23 22 21 21 20 20 20 19 18 17 17 16 16 16 15 15 14 13 13 13 12 12 11 11 11 10 10
23 25 24 24 22 22 23 25 25 24 25 25 24 24 24 24 23 23 21 20 20 19 19 19 19 18 18 18 17 16 15 14 14 13 12 12 12 11 11 11 11 10 10 9
23 25 24 22 22 22 22 24 24 24 23 23 24 24 23 22 22 21 21 20 19 19 19 19 19 18 18 17 16 16 15 14 13 12 12 11 11 11 10 10 10 9 9 8
19 23 24 24 23 25 23 23 23 23 23 24 25 24 21 21 21 21 20 20 20 19 18 18 18 17 17 16 16 15 15 14 13 11 11 10 10 10 9 9 8 8 8 8
21 23 23 22 22 22 23 23 22 22 24 23 24 22 24 23 22 22 21 20 19 19 18 17 17 16 16 15 15 14 13 12 11 11 10 10 10 9 8 8 7 7 7 7
20 22 22 22 21 21 21 22 22 22 22 22 22 22 23 23 22 21 20 19 18 19 17 16 16 15 15 14 13 13 12 11 11 11 10 10 9 8 8 7 7 7 6 6
21 21 21 23 21 21 22 22 22 22 22 22 21 21 21 19 20 19 19 18 18 17 15 15 15 14 13 13 12 11 11 11 10 10 9 9 8 8 7 7 6 6 6 6
21 21 21 21 21 20 20 20 21 22 21 21 20 19 19 19 19 19 18 18 17 15 14 14 14 13 12 11 11 10 10 10 9 9 9 8 8 7 6 6 6 5 5 5
19 21 20 19 21 23 20 19 19 20 21 21 20 19 19 18 17 18 17 15 15 14 13 13 12 12 11 11 10 9 9 9 9 9 8 7 7 6 6 5 5 5 5 3
18 19 20 19 17 18 21 19 19 19 20 20 20 19 18 17 18 16 15 15 14 13 13 12 11 11 11 11 10 9 9 9 9 8 7 6 6 5 5 5 5 5 3 3
19 19 19 20 18 21 20 18 18 19 20 19 19 19 18 17 16 15 14 14 13 12 12 11 11 11 10 10 9 9 8 9 8 7 6 5 5 5 5 5 5 4 3 2
19 18 18 20 18 18 19 17 19 18 17 18 18 17 16 16 14 13 13 13 12 12 11 11 10 10 10 10 9 8 8 8 7 6 5 5 6 5 5 5 4 3 3 2
19 21 21 20 20 19 19 18 16 17 17 17 17 16 15 14 13 13 12 13 12 11 11 11 10 10 10 10 9 8 8 7 6 6 5 6 5 5 5 4 2 2 2 1
19 18 18 18 21 19 18 19 17 16 16 16 16 14 14 14 13 13 13 12 12 11 11 10 10 10 10 9 9 8 7 6 5 5 5 5 5 5 4 2 2 1 1 1
19 17 19 19 20 18 17 18 18 16 15 14 14 14 13 13 13 12 12 12 12 11 11 10 10 10 9 9 8 8 7 6 5 5 5 5 5 4 2 1 2 0 0 1
18 20 19 20 21 20 19 18 17 15 14 14 13 13 13 12 12 12 12 12 11 11 10 10 10 9 9 8 8 7 6 5 4 4 4 4 4 2 1 1 1 1 0 0

GFSCGP_925_temp_075.txt.gz
Temp
22 20 20 21 22 23 23 23 23 22 22 22 20 22 22 24 24 23 24 23 23 21 22 23 23 23 22 22 22 21 20 20 20 19 19 19 18 18 18 17 17 17 16 16
21 19 22 23 24 24 24 23 22 21 23 22 21 22 23 23 25 23 23 23 23 21 19 21 22 22 22 21 21 21 21 20 20 19 19 19 18 18 18 18 17 17 16 16
19 22 23 23 24 24 24 22 20 21 21 23 22 21 22 24 23 23 22 22 22 22 19 18 20 22 22 21 21 21 21 20 20 19 19 18 18 17 17 17 17 17 16 16
19 21 23 23 24 25 24 25 25 22 21 20 22 19 22 21 22 20 19 19 20 20 20 19 19 20 22 22 21 21 21 20 20 19 19 18 18 18 18 18 17 17 16 15
21 21 23 24 24 22 22 23 23 23 22 21 22 20 19 20 20 20 19 19 19 19 20 19 19 21 22 22 22 21 21 20 20 19 19 19 18 17 17 16 16 16 16 15
21 21 21 23 22 22 22 22 20 20 19 19 20 20 20 20 19 18 18 19 19 18 18 17 20 21 21 21 21 21 20 19 19 19 19 18 18 17 17 16 16 15 15 15
21 21 22 20 21 21 21 19 18 19 18 18 21 20 20 19 19 17 17 17 17 16 15 15 15 17 19 19 19 19 19 19 18 18 18 18 18 17 16 15 15 14 13 13
19 20 21 21 20 21 20 19 18 20 18 20 23 20 19 19 17 17 17 16 16 15 15 15 16 17 18 18 18 18 18 18 18 18 17 17 16 15 15 14 14 13 13 12
19 20 21 20 20 21 21 21 21 21 22 19 19 19 19 18 18 16 16 16 15 15 14 14 14 16 16 16 17 17 17 16 16 16 16 15 14 14 14 13 13 12 12 11
19 19 21 21 22 22 22 22 21 18 21 21 20 18 17 17 17 16 16 15 15 14 14 13 14 16 16 16 16 16 16 16 15 15 15 14 13 13 12 12 12 11 11 11
20 19 19 21 20 20 20 20 21 19 18 19 19 18 18 17 17 16 15 15 14 14 13 13 15 16 17 16 16 16 15 15 15 14 14 13 13 12 12 11 11 10 10 10
19 18 18 20 21 21 21 21 20 17 20 18 15 16 17 17 17 17 15 15 14 14 13 13 14 15 15 15 15 15 15 15 14 14 13 12 11 11 11 10 10 9 9 9
17 18 17 18 19 19 21 21 22 18 15 18 16 17 18 16 16 16 14 14 14 14 14 13 13 13 14 15 15 14 14 13 13 12 12 11 11 10 10 9 9 9 8 8
16 18 18 17 20 19 20 21 21 18 15 17 17 17 18 17 16 15 14 14 14 14 14 12 11 12 14 14 14 13 13 12 12 11 11 11 10 9 9 9 8 8 7 7
16 19 20 20 21 21 21 21 20 20 18 18 19 19 17 16 16 15 15 14 14 14 13 12 11 11 12 13 13 12 12 12 11 11 10 10 9 9 9 8 8 7 6 6
17 18 20 21 20 20 20 20 20 19 20 20 20 19 18 17 15 15 15 14 14 12 12 12 12 12 12 12 11 11 11 10 10 9 9 9 9 9 8 7 7 6 6 5
17 17 16 18 20 20 18 18 19 20 21 19 19 18 17 17 16 15 14 14 12 11 11 11 10 11 11 11 11 11 10 10 9 9 9 9 8 7 7 6 6 5 5 5
18 17 15 12 17 17 19 18 18 18 20 17 16 16 17 17 15 12 13 11 11 11 10 9 10 11 11 11 11 10 10 9 9 8 8 8 7 7 6 6 5 5 5 5
15 15 14 13 14 17 18 18 18 19 19 18 16 15 16 15 13 11 11 10 10 9 10 10 11 11 10 10 10 10 9 9 8 8 8 7 7 6 6 5 5 5 5 4
16 14 14 13 13 14 17 17 18 17 14 18 16 15 14 13 11 9 11 10 9 10 11 10 11 10 10 10 10 9 9 9 8 8 7 7 6 6 5 5 5 4 3 3
14 13 12 12 11 13 16 17 17 15 14 18 17 14 12 12 10 10 10 10 11 11 11 11 10 10 9 10 9 9 9 8 8 7 7 6 6 5 5 5 4 3 2 2
14 10 11 12 13 13 15 16 16 14 16 15 15 13 11 9 10 10 9 9 10 10 10 10 10 10 10 9 9 9 8 8 8 7 6 6 5 5 5 4 3 2 2 1
14 14 13 12 12 14 13 16 15 13 14 15 13 10 10 10 10 10 9 9 10 10 10 10 10 9 9 9 9 8 8 8 7 6 6 5 5 4 4 3 2 2 1 0
16 14 14 14 16 15 14 15 14 15 14 13 11 10 10 9 9 9 8 9 9 10 10 10 9 9 9 9 8 8 8 7 6 6 5 4 4 4 3 2 2 1 0 0
13 14 13 12 14 16 15 13 12 12 11 11 11 11 9 9 9 9 8 9 10 10 10 9 9 9 8 8 8 7 7 7 6 5 4 4 3 3 2 1 1 1 0 0
12 13 12 13 13 13 13 12 11 11 10 10 10 10 10 9 9 9 8 10 10 9 10 9 8 8 8 8 7 7 7 6 5 4 4 3 3 2 1 0 -0 0 0 1

GFSCGP_925_temp_078.txt.gz
Temp
21 19 18 20 23 22 22 22 22 22 22 22 20 22 22 22 21 21 21 21 21 20 21 20 20 21 21 21 21 20 20 20 20 19 18 18 18 18 17 17 17 17 17 16
20 18 20 22 22 23 23 22 21 22 21 23 20 21 21 22 23 23 22 21 21 21 18 19 19 20 21 21 21 20 21 20 20 19 19 18 18 18 18 17 17 17 17 16
19 21 22 21 21 21 22 21 20 21 20 22 20 20 21 22 23 22 21 20 19 21 17 17 18 18 20 21 21 21 20 20 19 19 19 18 18 18 17 17 17 17 16 16
19 19 22 20 21 22 21 22 21 20 20 20 21 19 20 21 20 20 19 18 18 19 18 17 17 18 20 21 21 21 20 20 20 19 19 19 18 17 17 17 17 17 16 16
19 19 19 20 22 21 22 22 21 19 19 19 21 19 19 19 19 19 19 19 18 19 18 17 17 18 20 21 21 21 20 20 20 19 19 19 18 18 17 17 16 16 16 15
20 19 20 21 20 21 20 19 17 17 18 19 20 19 19 18 18 17 18 18 17 16 17 16 18 19 19 20 20 20 19 19 19 19 18 18 18 18 17 16 16 16 15 14
18 19 18 18 19 19 18 18 17 18 18 18 19 19 20 19 17 17 16 17 15 14 13 14 14 16 17 17 18 18 18 18 18 18 18 17 17 17 16 15 14 14 14 13
18 16 19 20 19 19 18 18 18 20 17 19 19 18 19 18 16 16 15 15 14 13 12 12 13 14 16 17 17 18 17 17 17 17 16 16 16 15 14 14 13 13 13 12
18 19 21 20 20 20 21 20 20 19 19 18 18 18 18 16 16 15 14 14 13 13 12 12 13 14 15 16 16 17 16 16 16 15 15 14 14 14 13 13 12 12 11 11
20 19 20 21 21 20 21 20 20 18 20 20 18 17 17 15 15 14 14 13 13 12 12 11 12 14 15 16 16 16 16 16 15 15 14 14 13 12 12 11 11 11 10 10
19 18 19 20 20 19 20 19 19 18 17 18 17 17 16 16 15 14 13 13 13 12 12 12 13 14 15 15 16 16 15 15 15 15 14 13 13 12 11 11 10 10 10 9
19 17 18 18 19 20 20 20 18 17 20 16 14 16 17 15 16 15 14 14 13 13 12 12 12 13 14 14 14 14 14 14 13 13 12 12 11 11 10 10 10 9 9 8
18 17 17 19 19 19 20 20 19 16 14 17 15 17 16 14 14 15 13 13 13 12 12 10 10 11 12 13 13 13 13 13 13 12 11 11 10 10 10 9 9 8 8 7
16 17 17 17 19 18 19 20 19 17 15 16 16 18 18 15 15 14 13 13 13 13 11 10 9 10 11 12 12 12 12 11 11 11 10 10 10 9 9 8 8 8 7 6
17 18 19 19 20 20 20 20 18 19 18 18 18 17 17 15 14 15 14 12 12 12 11 10 9 9 10 11 11 11 11 11 10 10 9 9 9 9 8 8 7 6 6 6
15 17 19 20 20 20 20 20 19 19 19 19 18 19 17 16 14 13 13 13 12 11 11 10 9 10 10 11 11 11 10 10 9 9 9 8 8 8 8 7 6 6 5 5
16 16 15 17 18 18 18 17 18 19 19 18 17 17 17 16 15 14 12 12 11 10 10 9 9 9 10 11 11 10 10 9 9 9 8 8 8 7 7 6 5 5 5 5
16 15 13 12 16 17 19 18 18 18 19 16 16 15 16 15 11 10 12 10 9 9 8 8 9 9 10 10 10 10 9 9 9 8 8 8 7 7 6 5 5 5 5 4
14 14 13 13 13 16 18 18 18 18 18 16 15 14 13 11 11 10 10 9 8 8 8 9 10 9 10 10 9 9 9 9 8 8 8 8 7 6 5 5 5 5 4 3
14 13 14 12 13 14 18 17 17 17 15 16 15 13 12 12 11 9 9 8 8 9 9 10 10 10 9 9 9 9 8 8 8 8 8 7 6 5 5 5 4 4 2 2
14 12 12 12 11 13 14 16 16 16 14 15 14 13 11 12 10 8 8 8 9 10 10 10 10 9 9 9 9 9 8 8 8 8 7 6 5 5 5 4 3 2 2 2
14 11 10 10 12 14 14 16 16 14 14 15 14 12 11 8 8 8 8 7 8 9 10 10 10 9 9 9 8 8 8 8 8 7 6 6 5 4 4 3 3 2 2 1
14 14 12 12 12 13 12 15 14 12 13 14 12 10 9 8 8 8 7 7 9 9 10 9 9 9 9 9 8 7 8 7 7 6 6 5 4 4 3 3 2 1 1 -0
15 12 13 13 15 13 14 14 13 13 13 12 10 8 8 8 8 8 7 7 8 9 9 9 9 8 8 8 8 7 7 7 6 6 5 4 3 3 2 2 1 0 0 -0
13 13 13 11 12 12 13 12 12 12 10 9 9 9 8 7 7 7 7 7 8 9 9 9 8 7 8 7 7 7 7 6 6 5 4 3 3 2 1 1 0 -0 -0 0
11 13 12 14 13 13 13 12 10 10 10 9 8 8 8 8 7 8 7 8 9 8 8 8 8 8 7 7 7 7 6 6 5 4 3 2 2 1 1 0 -0 0 0 0

GFSCGP_925_temp_081.txt.gz
Temp
19 17 16 18 20 21 21 21 22 22 21 20 19 19 19 19 19 20 20 21 20 20 19 19 19 19 19 20 19 20 20 19 19 18 18 17 17 17 17 17 17 17 17 16
18 17 18 20 21 22 21 22 21 21 21 22 20 20 20 21 21 20 20 19 19 18 17 17 18 18 19 19 20 20 20 19 19 19 19 18 18 17 17 17 17 17 17 16
17 19 20 21 21 21 21 20 20 22 20 21 20 20 21 22 21 22 20 19 20 18 17 16 16 17 18 19 20 20 20 19 19 19 18 18 17 17 17 17 17 17 16 16
19 19 20 19 19 21 20 21 20 19 19 19 19 19 20 20 20 20 18 17 19 19 17 16 16 16 18 18 19 20 20 19 19 19 19 18 18 17 18 17 17 17 16 16
17 18 19 19 20 20 21 21 20 19 17 18 20 19 19 18 19 18 18 18 18 18 16 14 15 17 18 19 19 20 19 19 19 19 19 19 18 18 17 17 17 17 16 16
17 18 18 19 18 20 18 18 16 15 16 17 19 19 19 18 19 17 17 18 16 15 17 14 16 17 18 18 18 19 19 18 18 18 18 18 18 17 17 16 16 15 15 15
17 17 18 17 18 18 17 16 16 17 18 18 18 18 20 19 18 17 16 16 14 13 13 13 13 14 16 17 18 18 18 17 17 17 17 17 16 16 15 14 14 14 14 13
16 18 17 18 18 18 17 17 16 19 17 19 17 18 19 16 15 14 14 13 12 11 11 11 12 14 15 16 16 17 16 16 16 16 16 16 15 15 14 13 13 12 12 12
16 15 17 18 19 18 18 17 19 18 17 17 17 18 18 15 15 14 13 12 12 11 11 10 11 13 14 15 16 16 16 16 15 15 15 15 15 14 13 12 12 11 11 11
18 15 19 18 19 20 20 18 19 15 19 20 17 18 17 15 14 14 13 12 12 11 10 10 11 13 14 15 15 15 15 15 14 14 14 14 13 13 12 12 11 11 10 10
18 17 19 19 20 19 19 19 18 17 16 17 18 18 15 15 14 13 12 12 11 11 11 10 11 13 13 14 14 15 15 14 14 13 13 12 12 11 11 10 10 10 9 9
17 16 18 19 19 19 19 20 19 17 19 14 14 17 16 14 14 14 12 12 11 11 11 10 11 12 13 13 13 14 14 14 14 13 12 11 11 10 10 10 9 9 8 8
17 17 16 19 18 19 19 19 17 15 14 15 15 17 14 13 13 13 12 12 12 11 11 10 9 10 11 12 13 13 13 13 12 12 11 11 10 10 9 9 8 8 8 7
16 17 17 17 18 17 19 19 17 17 14 15 14 18 18 14 14 13 12 12 11 11 11 9 8 8 10 11 11 11 11 11 11 11 10 10 9 9 9 8 8 7 7 6
16 17 17 18 17 19 19 19 17 17 17 18 18 16 17 14 14 14 13 11 11 11 10 9 8 7 9 10 10 10 11 10 10 10 9 9 8 8 8 8 7 7 6 5
14 17 17 19 19 19 18 18 18 17 17 18 17 17 17 14 12 13 12 12 12 11 10 9 8 8 9 10 10 10 10 9 9 9 9 8 8 8 7 7 6 6 5 5
15 15 14 17 16 17 17 17 17 18 18 17 16 16 15 15 14 13 12 12 11 9 9 8 8 8 9 10 10 9 9 9 9 8 8 8 8 7 7 6 6 5 5 5
14 14 12 11 15 17 18 17 17 17 18 17 17 16 16 14 10 9 10 10 9 8 7 7 8 9 9 9 9 9 9 8 8 8 8 8 7 7 6 6 5 5 4 4
13 12 13 12 13 15 18 17 18 18 18 15 16 15 12 11 11 10 8 8 7 7 7 8 9 9 9 9 9 9 8 8 8 8 8 8 7 6 6 5 4 4 4 3
13 12 13 11 13 14 17 17 17 17 14 15 14 12 11 12 12 10 8 7 7 8 9 9 9 9 9 9 9 8 8 8 8 8 8 7 6 5 5 4 4 3 2 2
13 11 12 11 11 13 14 16 16 16 15 15 13 11 10 12 10 8 7 7 8 9 9 9 9 9 9 9 8 8 7 7 7 7 7 6 6 5 4 3 3 2 2 1
14 11 10 10 12 14 14 16 17 14 13 14 12 10 10 8 7 7 7 6 7 8 8 9 9 8 9 8 8 7 7 7 7 7 6 5 5 4 3 3 2 2 1 1
13 14 13 12 13 14 13 16 13 11 12 13 11 9 8 7 7 7 6 6 7 8 9 9 8 8 8 8 7 7 7 7 6 6 5 5 4 3 3 2 1 1 0 -0
14 11 13 13 15 12 12 12 13 11 13 11 10 7 7 7 7 7 6 6 7 8 8 8 8 7 7 7 7 6 6 6 6 5 5 4 3 2 2 1 1 0 -0 -1
12 12 12 11 12 12 12 11 11 12 10 9 8 8 7 7 7 6 6 6 7 8 8 8 7 7 7 7 7 6 6 6 5 5 3 3 2 1 1 1 0 -0 -0 -0
11 13 12 14 14 14 14 13 10 9 9 8 8 7 7 7 6 6 5 7 8 8 8 7 7 7 7 6 6 6 6 5 4 3 3 2 1 1 1 0 -0 0 -0 0

GFSCGP_925_temp_084.txt.gz
Temp
17 16 14 15 17 19 20 20 21 21 20 20 19 20 19 18 18 19 18 18 18 19 19 20 19 19 18 18 19 18 17 18 18 18 17 17 17 16 16 17 17 17 17 16
16 15 16 17 18 19 20 21 21 20 20 20 18 19 18 18 19 19 19 18 18 19 17 16 17 18 18 18 18 17 17 18 19 19 18 17 17 17 17 17 17 16 16 16
15 17 18 18 19 19 21 20 20 21 20 20 20 20 20 20 20 21 20 19 19 18 17 15 15 16 16 17 17 17 17 19 19 18 18 17 17 17 16 16 17 17 16 16
15 18 17 18 19 19 19 20 19 18 18 19 19 18 20 20 19 20 19 17 18 18 17 15 14 15 16 16 16 17 19 19 18 18 18 18 18 17 17 17 17 17 16 16
18 18 17 19 20 19 20 18 18 17 16 18 19 18 18 18 20 18 16 17 18 17 17 15 14 15 16 17 17 19 19 18 18 18 18 18 18 18 17 17 16 16 16 15
16 17 16 17 17 17 16 16 16 15 16 16 18 18 19 18 19 18 16 17 17 14 15 13 14 15 16 17 18 18 18 18 18 17 17 17 16 16 16 16 15 15 14 14
16 17 16 16 17 17 16 16 15 16 16 17 17 17 21 19 18 17 16 15 14 12 13 12 12 13 15 16 17 18 17 17 16 16 16 16 16 15 15 15 14 14 13 12
15 17 16 17 18 17 16 17 16 18 16 17 17 17 19 16 14 13 13 12 12 12 11 11 11 13 15 16 16 16 16 16 16 16 16 15 15 15 14 13 13 12 12 12
14 15 15 17 17 17 16 17 17 16 16 16 16 17 18 15 14 13 12 12 12 11 10 10 11 13 14 14 15 15 15 14 14 15 15 15 14 14 13 13 12 12 11 11
14 13 17 16 17 19 18 17 18 14 18 19 17 17 18 16 14 13 13 12 11 10 10 9 9 11 12 14 14 14 14 15 14 14 14 14 13 13 12 12 11 11 10 9
17 16 16 15 16 17 18 18 15 16 16 17 18 18 16 17 14 13 12 11 11 10 10 9 9 11 12 13 14 14 14 14 14 13 13 12 12 11 11 10 10 9 9 8
17 16 17 17 18 18 18 19 18 16 16 14 15 17 16 14 13 13 12 11 11 11 10 9 9 11 11 12 13 13 13 13 12 12 11 11 10 10 10 9 9 8 8 8
17 16 15 18 18 18 18 18 17 15 14 14 15 17 15 13 12 12 12 11 11 10 9 8 8 9 10 11 11 12 12 12 11 11 10 10 9 9 9 9 8 8 8 7
15 16 16 16 19 17 18 18 17 16 15 14 14 18 19 16 13 12 12 11 10 10 10 8 7 7 9 10 10 11 11 11 11 10 10 9 9 9 8 8 8 7 7 6
15 16 16 17 16 17 18 18 17 16 16 18 18 16 17 16 13 12 12 11 10 10 9 8 7 6 8 9 10 10 10 10 10 9 9 9 8 8 8 7 7 7 6 6
14 16 16 18 17 17 17 17 16 15 17 15 17 16 14 13 12 12 12 11 11 10 9 8 7 7 8 9 9 9 9 9 9 9 9 8 8 7 7 7 6 6 6 5
14 14 14 17 14 16 17 17 16 17 16 17 16 16 15 15 14 14 12 11 11 9 8 7 7 8 8 9 9 9 9 9 8 8 8 8 7 7 7 6 6 5 5 4
14 13 11 11 14 17 18 17 17 17 17 16 17 17 14 13 9 9 9 10 9 8 7 6 7 8 8 9 9 8 8 8 8 8 8 7 7 7 6 5 5 5 4 4
12 12 12 12 13 15 18 17 17 18 17 15 16 13 11 10 11 10 7 8 7 6 6 7 8 8 9 9 9 9 8 8 8 8 7 7 6 6 5 5 5 4 3 3
12 11 13 11 13 14 17 17 16 16 15 13 14 12 11 11 12 10 8 6 5 7 8 8 8 8 9 9 8 8 8 8 7 7 7 7 6 5 5 4 4 3 2 2
12 10 12 11 11 13 14 16 16 17 14 14 14 11 10 12 10 8 6 6 7 7 8 8 9 9 8 8 8 7 7 7 7 7 6 6 5 4 4 3 3 2 1 1
13 10 10 10 12 15 14 16 18 14 13 14 12 10 9 8 6 6 6 5 6 6 7 8 8 8 8 8 7 7 7 7 6 6 6 5 5 4 3 3 2 1 1 0
12 13 13 11 12 14 13 15 14 11 12 13 11 9 8 6 6 6 5 5 6 7 8 8 8 8 7 7 7 7 6 6 6 6 5 4 4 3 2 2 1 1 0 -1
14 11 12 13 15 12 12 12 12 11 13 11 10 7 7 7 6 6 5 5 6 7 7 8 7 7 7 7 6 6 6 6 5 5 4 4 3 2 2 1 1 -0 -1 -1
12 12 12 11 12 12 12 10 11 11 11 9 7 7 7 6 6 5 5 5 6 7 7 7 7 7 6 6 6 6 5 5 5 4 3 3 2 1 1 0 -0 -1 -1 -1
9 13 12 14 14 14 13 13 10 9 9 7 7 7 6 6 5 5 4 6 7 7 7 7 7 6 6 6 6 5 5 5 4 3 2 2 1 0 -0 -1 -1 -1 -1 -0

GFSCGP_925_temp_087.txt.gz
Temp
16 17 16 17 17 19 19 19 22 21 21 22 21 22 22 20 19 20 20 19 20 21 21 20 20 19 18 18 18 18 18 16 17 17 16 16 17 17 17 16 16 16 16 16
16 16 17 17 17 18 19 19 22 20 19 22 20 21 21 20 20 20 21 20 20 21 21 20 19 18 17 18 17 17 16 17 17 17 17 17 17 17 17 16 16 16 16 16
16 18 18 17 18 17 19 18 20 22 20 20 19 21 22 21 21 20 21 21 20 19 21 19 17 17 16 16 17 16 16 16 17 17 17 17 16 16 16 16 16 16 16 16
15 17 18 16 18 18 18 20 20 18 20 21 19 22 20 21 21 20 21 20 20 19 19 18 17 16 15 15 15 15 16 17 17 18 18 18 18 16 17 17 17 16 16 15
17 17 17 18 19 19 19 18 19 17 18 19 19 21 22 19 21 21 20 19 19 18 18 18 17 16 15 15 14 15 16 17 17 18 18 18 18 17 16 16 16 16 15 15
16 16 16 18 16 16 16 17 16 16 17 19 20 21 21 21 22 19 18 18 18 17 17 16 15 14 14 15 16 16 16 17 17 17 17 17 16 16 16 15 15 14 14 14
16 16 16 16 17 16 17 19 17 18 19 20 18 19 22 20 19 19 18 18 17 15 16 14 14 14 13 15 16 16 16 16 16 16 16 16 15 15 15 15 14 14 13 13
14 16 16 16 17 18 16 18 16 18 19 20 17 19 21 18 16 15 15 15 14 14 14 14 13 13 14 14 15 15 15 15 16 16 15 15 15 14 14 14 13 13 12 12
13 13 15 16 16 17 16 17 18 18 16 18 19 19 19 16 15 14 15 15 14 13 13 13 12 13 13 13 14 15 15 15 15 15 14 14 13 13 13 13 13 12 11 11
14 15 16 16 17 17 17 17 19 17 19 20 19 18 21 18 17 15 15 15 13 12 12 12 12 11 11 13 14 14 14 14 14 13 13 13 13 13 12 11 11 11 10 10
14 15 17 16 17 17 18 18 17 18 17 19 20 21 18 18 17 16 15 14 13 12 12 11 11 10 10 12 13 13 13 13 13 13 13 12 11 11 11 11 10 10 9 9
17 16 15 15 18 17 18 18 18 19 17 16 16 21 17 16 16 16 15 13 12 12 11 11 10 11 11 11 11 12 12 13 12 12 11 11 11 10 10 10 9 9 8 8
16 17 16 17 18 17 17 18 16 16 16 16 19 21 16 15 14 14 15 13 12 12 11 11 11 11 10 10 10 11 11 11 11 11 11 10 10 9 9 9 8 8 8 7
15 15 17 17 18 17 17 17 17 17 17 17 17 19 19 18 15 14 14 13 12 12 11 11 10 9 9 9 9 10 10 10 10 10 10 9 9 9 8 8 8 7 7 6
15 16 16 16 15 16 17 18 16 17 17 19 19 16 18 17 16 15 14 12 12 12 11 10 9 8 8 8 8 9 10 10 9 9 9 9 8 8 8 7 7 7 6 6
13 16 14 16 16 16 16 16 16 16 16 15 16 17 16 14 13 14 14 13 12 12 11 10 9 8 8 8 9 9 9 9 9 9 8 8 8 7 7 7 7 6 6 5
14 14 13 16 14 15 17 18 16 16 16 17 17 18 16 15 14 14 13 13 13 11 10 9 9 8 8 8 9 9 9 9 8 8 8 7 7 7 7 7 6 6 5 5
13 13 11 13 14 19 18 16 17 16 17 16 16 16 14 13 10 10 10 12 12 10 9 8 8 7 8 8 9 9 8 8 8 7 7 7 7 7 6 6 5 5 4 4
12 12 13 13 13 16 17 16 17 17 18 14 15 13 11 11 11 12 8 9 9 9 8 8 7 8 8 8 8 8 8 7 7 7 7 7 6 6 5 5 4 4 3 3
10 11 13 12 14 15 18 16 15 16 16 13 14 12 12 12 16 14 8 7 7 7 7 7 8 8 8 8 8 8 7 7 7 7 6 6 5 5 5 4 4 3 2 2
12 10 13 12 14 15 15 15 15 17 17 14 13 12 11 14 12 9 7 7 7 7 7 8 8 8 8 8 8 7 7 7 6 6 6 6 5 5 4 3 3 2 1 1
14 12 12 11 13 16 14 16 18 16 13 14 12 11 10 9 7 7 7 7 7 6 6 8 7 7 7 7 7 7 6 6 6 6 5 5 4 4 3 2 2 1 0 -1
13 14 14 13 15 14 13 14 14 12 13 13 12 10 9 7 7 7 7 7 6 7 7 7 7 7 7 7 7 6 6 6 5 5 5 4 4 3 2 1 1 -0 -1 -1
13 11 13 13 14 13 13 12 11 11 12 13 11 8 8 8 7 7 6 6 6 6 7 7 7 6 6 6 6 6 5 5 5 5 4 3 2 2 1 1 -0 -1 -1 -1
12 11 12 12 13 13 13 12 12 11 11 10 8 7 8 7 7 7 6 6 6 6 7 7 7 6 6 6 6 5 5 5 4 3 3 2 1 1 -0 -1 -1 -1 -1 -1
10 13 13 15 14 15 14 13 11 10 10 9 8 7 6 7 7 6 6 6 6 6 6 6 6 6 6 5 5 4 4 4 3 2 1 1 0 -1 -1 -1 -1 -1 -1 -1

GFSCGP_925_temp_093.txt.gz
Temp
24 22 22 24 24 23 23 23 23 25 27 27 27 27 28 29 28 28 29 29 28 29 29 28 28 27 26 24 23 21 19 18 17 16 15 16 17 18 18 18 18 18 17 17
23 21 23 23 23 22 22 22 22 24 25 26 26 27 28 29 27 27 28 29 29 29 30 28 27 26 23 22 21 20 18 17 15 15 17 18 18 18 18 18 18 18 17 17
21 22 23 22 22 22 22 21 22 23 24 26 26 26 27 29 28 28 28 29 29 29 29 27 26 25 23 24 22 22 18 16 15 15 18 19 19 18 18 17 17 17 17 17
21 22 22 22 22 22 21 23 22 22 22 22 26 23 27 28 28 28 27 28 28 27 27 28 27 26 25 24 22 20 18 16 16 17 19 19 17 18 18 18 17 17 17 17
21 20 20 20 22 22 21 23 22 22 22 23 21 23 28 29 28 28 28 28 27 26 24 26 27 27 26 23 22 21 19 17 17 19 18 18 20 20 19 19 18 18 17 17
21 22 21 21 21 22 22 22 22 22 22 18 17 19 27 28 29 29 29 28 27 25 24 23 24 24 23 22 22 21 20 19 18 19 19 19 20 19 19 19 18 18 17 16
20 21 22 21 20 23 22 21 15 16 17 19 19 18 21 25 29 29 30 30 28 26 24 24 23 22 21 20 20 19 18 18 18 18 19 19 19 19 19 19 19 18 17 16
18 18 20 22 20 19 21 21 16 17 18 18 22 22 24 24 25 25 26 27 26 24 24 23 23 22 20 19 19 19 18 18 18 18 18 17 18 18 19 18 18 18 17 16
19 18 21 21 21 20 21 17 16 13 15 16 22 26 26 25 24 24 24 24 23 23 23 22 21 20 20 19 18 18 18 18 17 17 17 17 17 17 17 16 16 15 15 13
21 18 21 21 22 21 20 18 17 15 18 19 23 22 23 25 25 24 23 23 21 21 20 20 21 20 20 18 18 17 16 16 16 16 17 17 17 16 15 15 14 14 13 12
21 20 21 21 22 21 21 20 19 20 21 17 22 23 25 24 24 24 23 22 21 20 20 20 20 19 18 17 17 17 16 17 16 16 16 16 16 15 15 14 13 13 12 12
22 20 21 21 23 23 22 21 22 17 18 22 19 23 25 24 24 24 21 20 20 19 19 19 19 18 18 17 17 17 17 16 16 16 16 15 14 14 14 13 13 12 12 11
20 22 22 21 23 23 23 23 23 22 23 21 20 21 25 24 23 23 21 20 19 18 18 18 19 19 18 18 18 17 16 15 15 15 15 14 13 13 13 13 12 11 11 11
19 21 21 21 22 22 22 22 23 22 21 21 21 23 25 24 23 22 21 20 19 19 18 19 19 19 18 18 17 16 15 15 14 14 14 13 13 12 12 11 11 11 10 10
21 20 22 22 23 22 22 22 22 22 22 22 23 23 24 22 23 22 21 20 19 19 19 19 18 19 18 17 16 16 15 14 14 13 13 12 12 11 11 10 10 10 10 9
21 20 22 22 22 22 22 22 22 22 22 22 23 23 22 22 23 22 22 21 20 19 18 18 18 17 17 16 15 14 14 14 13 13 12 11 11 10 10 10 9 9 9 9
19 20 20 22 23 23 22 21 22 22 22 21 22 21 22 22 21 22 22 21 20 20 19 18 17 17 16 16 15 14 14 13 13 12 11 11 10 10 10 9 9 9 8 8
19 19 20 20 23 22 22 21 21 21 21 21 21 22 20 19 19 19 19 21 21 20 19 17 17 16 15 14 14 13 13 12 12 12 11 10 10 10 9 9 9 8 8 8
18 19 20 19 22 23 23 21 21 20 21 20 20 20 19 18 20 17 17 18 20 19 18 16 15 14 14 13 12 12 12 11 11 11 11 10 10 9 9 8 8 7 7 7
18 18 18 21 19 20 22 21 20 20 21 20 20 20 20 19 22 18 16 16 17 16 15 15 14 14 13 12 12 12 11 11 11 10 10 9 9 8 8 7 7 7 6 6
19 19 19 20 20 22 21 20 19 21 20 20 20 20 20 20 17 15 16 15 15 14 14 13 13 13 12 11 11 11 11 11 9 9 8 8 8 8 7 6 6 6 6 5
20 20 20 21 20 20 20 20 21 20 20 20 20 19 18 16 15 15 14 14 13 13 13 13 12 12 11 11 11 11 10 9 8 8 8 8 7 7 6 6 6 5 5 5
19 21 20 20 21 20 20 20 19 19 19 20 19 18 18 16 15 14 13 13 13 13 12 12 12 11 10 10 10 10 9 8 8 8 8 7 7 6 6 6 5 5 5 4
21 18 18 19 21 21 20 20 19 19 19 19 18 18 17 16 15 14 14 13 13 12 12 11 11 11 10 9 9 8 8 7 7 8 7 7 6 6 5 5 5 4 4 3
20 18 20 20 21 21 20 20 19 19 18 17 17 17 16 16 15 14 14 13 12 12 11 11 11 10 10 9 8 7 7 6 7 7 7 6 5 5 5 4 4 3 2 2
18 18 18 19 21 20 21 21 20 19 18 17 16 15 16 15 15 14 13 13 12 11 11 10 10 9 9 8 7 6 5 5 5 5 5 5 4 4 4 4 3 3 1 -0

GFSCGP_925_temp_099.txt.gz
Temp
19 19 18 19 20 20 19 19 18 20 21 20 20 20 20 21 23 22 22 22 25 26 25 23 22 23 24 24 22 23 23 21 20 18 18 18 18 18 18 18 18 18 18 18
18 17 20 21 20 20 19 18 18 19 21 20 20 20 21 21 22 24 23 22 23 24 21 20 20 21 22 23 23 21 22 20 19 19 18 18 18 17 18 18 18 18 18 18
19 19 21 21 20 19 19 18 18 18 19 20 18 18 19 21 21 23 23 23 22 21 19 19 19 19 19 20 20 19 20 20 18 18 18 17 17 17 18 18 18 18 18 17
19 20 20 19 19 20 17 19 19 19 17 15 20 17 18 19 21 22 22 22 20 21 20 20 20 20 20 20 21 19 17 18 17 18 17 17 16 17 17 18 18 18 17 17
19 19 19 18 20 20 18 19 18 18 16 16 16 15 17 18 20 20 20 21 20 20 19 20 22 21 18 19 19 17 17 16 16 17 17 16 17 17 17 17 18 17 17 17
19 21 21 20 20 20 18 18 17 16 16 14 16 16 15 17 16 18 19 21 20 19 19 18 20 19 18 19 19 17 16 16 16 17 17 17 16 17 16 17 17 17 17 17
17 20 20 21 18 19 19 15 13 13 14 15 16 16 15 16 17 18 18 19 18 18 18 17 17 17 18 18 17 17 16 15 15 15 15 15 17 18 17 17 17 17 17 16
15 16 19 20 19 18 18 15 13 13 15 15 13 14 17 16 16 18 18 18 16 16 15 16 15 16 16 16 17 16 16 15 15 15 15 16 17 18 17 17 17 17 17 16
15 16 19 20 21 20 18 16 13 12 12 14 14 14 15 16 16 15 15 16 16 15 15 15 14 16 17 17 16 16 16 16 16 16 16 17 17 18 18 17 17 17 16 15
18 15 18 20 21 20 19 16 15 13 16 14 19 19 19 17 16 15 15 14 14 15 15 14 14 15 16 17 17 17 17 17 17 17 17 16 17 17 16 16 15 15 14 14
17 16 16 18 20 19 17 17 17 15 14 16 15 18 20 18 18 17 15 15 13 15 14 14 13 14 15 16 17 16 17 17 16 16 16 16 16 15 15 14 14 13 13 12
18 15 14 17 19 22 21 20 19 15 15 15 15 16 17 17 16 16 15 15 14 14 13 13 13 14 15 15 16 16 16 16 16 16 15 15 15 14 14 13 13 12 12 11
17 15 13 15 16 18 19 20 20 18 16 15 14 16 18 16 15 15 14 14 14 14 13 12 12 13 14 15 15 15 15 15 15 15 14 14 14 13 13 12 12 12 11 11
17 15 15 14 15 16 17 19 20 18 16 17 17 18 18 17 16 15 14 13 13 14 13 12 12 12 14 14 15 15 15 14 14 14 13 13 12 12 12 11 11 11 10 10
16 15 16 16 17 17 19 20 19 20 20 18 18 18 18 18 16 15 15 15 15 14 14 13 12 11 13 13 14 14 14 13 13 12 12 11 11 11 11 10 10 10 10 9
14 15 15 16 18 19 20 18 19 19 18 18 18 17 17 16 16 15 15 15 15 15 14 13 12 12 12 13 13 13 13 13 12 12 11 11 11 10 10 10 9 9 9 9
14 14 13 14 16 17 18 18 19 18 17 18 17 18 17 15 15 13 15 15 15 14 13 13 12 12 13 13 13 13 13 12 12 11 11 10 10 10 9 9 9 8 8 8
14 14 14 13 15 17 19 20 19 17 17 16 16 16 15 14 13 12 12 15 14 13 12 11 11 12 12 13 13 12 12 12 11 11 10 10 10 9 9 8 8 8 7 7
13 14 13 12 13 17 19 19 18 19 17 17 17 16 15 14 13 12 12 12 13 11 11 11 12 12 12 12 12 12 11 11 11 10 9 9 9 8 8 7 7 6 6 6
15 13 13 12 13 16 19 19 19 18 14 18 18 16 16 14 14 12 12 11 10 11 12 11 12 12 12 11 11 11 10 9 9 9 8 8 8 8 7 7 6 6 6 5
14 13 12 11 10 15 18 18 18 18 15 18 17 17 16 13 11 11 10 10 11 11 11 12 12 11 11 11 11 10 9 8 8 8 8 8 7 7 6 6 6 5 5 5
14 11 11 12 12 15 18 18 18 15 16 18 16 13 12 10 10 10 9 9 10 9 10 11 10 10 10 10 10 8 8 8 8 8 7 7 7 6 6 5 5 5 4 4
15 15 14 14 14 15 18 17 17 15 15 17 16 13 11 10 10 9 9 9 9 10 10 10 10 9 9 9 9 8 7 7 7 7 7 6 6 5 5 5 4 4 3 3
15 15 14 15 17 17 16 17 16 17 17 17 15 12 11 10 9 9 8 8 9 10 10 10 9 8 8 8 7 7 6 6 6 5 5 5 4 4 4 4 3 3 2 1
12 14 14 13 14 16 16 15 15 16 16 16 15 14 11 10 9 9 8 8 9 10 10 9 9 8 7 7 6 6 5 5 5 4 4 3 3 3 3 3 2 2 1 1
12 12 12 13 14 14 15 16 17 16 16 14 13 14 11 10 9 9 8 9 9 9 9 9 8 7 6 5 5 4 4 4 4 3 3 3 2 2 2 2 2 1 0 0

GFSCGP_925_temp_102.txt.gz
Temp
18 17 16 17 18 18 18 17 17 18 19 19 19 19 18 19 19 19 19 20 19 22 24 22 20 21 22 21 19 21 21 21 21 20 19 18 18 18 18 19 19 19 19 18
17 17 19 19 19 19 18 17 17 17 19 19 18 18 18 19 19 19 20 19 20 21 20 19 19 20 20 20 19 20 20 20 19 18 18 17 17 17 18 18 18 18 18 18
18 19 20 20 18 18 18 17 17 17 18 18 18 18 18 19 19 19 19 19 20 20 19 20 19 20 20 20 19 18 19 18 18 17 17 16 16 16 16 16 18 18 18 18
18 20 19 19 18 19 17 19 18 18 17 16 18 16 16 17 18 19 17 16 18 18 18 19 19 19 19 20 19 17 16 16 17 17 17 17 15 15 16 15 17 18 17 17
18 18 19 18 19 19 18 19 17 18 17 14 16 14 15 17 18 17 16 16 17 18 18 19 19 19 20 19 17 16 16 15 15 17 16 16 17 16 16 16 17 17 17 17
18 19 20 19 19 19 19 17 15 15 15 14 14 15 14 14 14 15 16 16 16 19 18 18 19 19 19 18 17 16 15 15 16 16 15 17 17 16 15 16 16 16 17 17
15 18 18 20 18 18 18 15 13 13 14 14 13 14 14 15 15 14 15 15 15 14 16 17 17 17 17 17 16 16 17 16 15 14 15 16 14 13 15 15 15 16 16 16
14 15 19 19 18 18 17 15 14 13 14 14 14 14 15 15 15 14 15 14 14 14 14 15 16 17 16 17 17 16 16 15 15 14 15 15 13 14 15 15 15 16 17 16
14 15 17 18 19 19 18 14 13 12 13 13 15 16 15 17 16 15 14 14 14 14 14 14 14 15 16 16 16 15 15 15 14 14 13 14 15 14 15 16 16 16 16 16
17 14 17 18 19 18 18 14 15 14 15 13 16 17 16 17 15 14 14 14 14 13 13 13 13 13 14 15 15 15 15 14 14 15 15 15 15 15 16 16 16 15 14 14
16 15 15 17 18 17 16 16 16 14 15 15 13 15 17 16 16 15 13 13 12 13 12 12 12 13 14 15 15 15 15 15 15 15 15 15 15 15 15 14 14 13 13 13
17 14 13 16 17 17 19 19 17 15 15 15 15 15 15 14 14 14 14 14 13 13 13 12 12 12 13 13 14 15 14 15 15 15 15 15 14 14 14 13 13 13 12 12
17 14 12 15 16 16 17 17 19 15 14 15 14 16 15 14 14 13 13 13 13 13 12 12 12 11 12 14 14 14 14 14 14 14 14 13 13 13 12 12 12 11 11 11
16 14 14 13 15 15 15 16 17 16 14 15 15 17 17 15 14 14 13 13 13 13 12 11 10 10 12 12 13 13 13 13 13 13 13 12 12 12 11 11 11 10 10 10
14 14 14 14 15 15 15 15 18 18 17 17 17 17 16 15 14 14 14 13 13 13 13 11 10 10 11 12 12 13 13 13 13 12 12 11 11 11 10 10 10 10 9 9
12 13 13 14 17 16 17 18 18 18 18 17 16 16 15 14 14 14 13 13 13 13 12 11 11 10 10 12 12 12 12 12 12 12 11 11 10 10 10 9 9 9 9 8
13 12 12 13 14 15 18 18 18 17 16 17 17 17 15 13 13 14 14 13 13 12 11 10 10 10 11 12 12 12 11 11 12 11 10 10 10 9 9 9 8 8 7 7
12 12 12 11 13 17 18 19 17 16 16 16 16 15 14 13 12 12 12 12 12 11 10 9 10 10 11 11 12 11 11 11 10 10 10 9 9 9 8 8 7 7 6 6
11 12 12 11 12 15 18 18 17 17 17 17 15 15 14 13 14 13 11 12 11 10 9 10 11 11 11 11 11 11 10 10 10 9 9 8 8 8 7 7 7 6 6 6
11 12 12 11 12 15 17 18 18 17 15 16 15 14 14 13 13 11 11 10 9 9 10 10 11 11 11 11 11 10 9 9 8 8 8 8 7 7 7 6 6 6 5 5
13 12 11 11 10 13 14 18 17 17 15 16 15 15 13 13 11 10 9 9 9 9 10 10 11 10 10 10 10 9 8 8 8 8 7 7 7 7 6 6 5 5 4 4
13 10 10 10 11 14 16 17 17 15 15 16 15 14 13 10 9 9 9 8 8 8 9 10 9 9 9 10 10 8 7 7 7 7 7 6 6 5 5 5 4 4 4 3
14 14 13 12 13 15 16 16 16 13 14 16 15 12 10 9 9 8 8 7 8 8 9 9 9 8 8 8 8 7 6 7 6 6 6 5 5 4 4 4 3 3 2 2
15 13 12 14 16 16 16 16 15 13 15 15 14 11 9 9 8 8 7 7 7 8 8 9 8 7 7 7 7 6 6 6 5 5 4 4 3 3 3 3 2 2 1 1
12 13 13 11 13 14 15 14 15 15 15 15 13 11 10 9 8 8 7 6 8 8 8 9 8 7 6 6 5 5 5 5 4 3 3 3 2 2 2 2 1 1 0 0
10 13 14 15 13 14 14 15 14 14 14 13 13 11 10 9 8 8 7 8 8 8 8 7 7 6 5 5 4 4 3 3 3 3 2 2 2 1 1 1 1 0 -1 -1

GFSCGP_925_temp_108.txt.gz
Temp
16 15 16 16 16 16 16 15 15 16 17 16 16 15 16 17 16 15 15 15 16 16 18 19 19 18 19 19 19 19 18 18 17 17 17 16 17 17 17 17 17 17 18 18
15 16 18 17 17 17 16 15 15 16 17 16 16 16 17 16 17 17 17 16 15 15 16 17 19 18 18 19 18 18 18 18 19 19 18 16 16 17 17 17 17 17 17 18
16 18 18 18 17 16 17 16 15 16 16 16 15 15 15 16 16 16 15 14 14 14 14 15 18 18 17 18 17 18 18 18 20 17 15 16 15 15 15 16 16 16 16 17
17 18 18 17 17 17 15 18 16 15 14 14 15 13 14 14 15 14 13 12 12 12 13 14 17 17 17 17 17 17 19 19 17 16 15 15 14 14 14 15 14 14 14 15
18 17 17 17 18 17 17 16 15 15 13 13 14 13 12 12 14 14 14 14 13 13 12 14 16 18 18 17 17 17 17 17 17 16 15 14 14 13 12 12 12 10 10 12
16 16 17 18 18 17 17 16 14 13 12 13 13 12 12 13 13 13 14 14 15 14 14 15 17 17 17 17 16 16 16 15 15 14 13 13 12 11 12 11 10 11 11 11
13 17 16 18 17 16 15 13 12 12 11 12 13 13 12 14 14 14 14 14 15 14 15 15 15 16 16 16 16 15 15 14 13 14 13 13 13 13 13 12 12 10 10 11
13 15 17 17 18 17 14 14 12 15 14 13 14 14 14 14 16 15 14 14 14 14 14 15 15 15 15 16 15 15 15 14 14 13 13 13 13 14 13 13 13 12 11 12
13 14 15 16 17 16 16 13 13 13 10 12 11 16 14 14 14 14 14 13 13 12 13 13 14 14 16 15 15 15 15 14 14 14 13 14 14 13 14 12 12 11 12 13
16 12 15 15 17 15 15 13 14 11 11 14 13 13 15 14 13 14 13 12 11 11 11 12 11 12 13 14 14 15 14 14 13 14 14 13 13 13 12 12 11 12 12 13
15 13 14 15 16 16 14 15 14 13 13 13 15 14 15 13 13 12 12 12 11 11 12 12 11 11 11 12 12 12 13 13 13 12 13 12 11 12 12 12 12 13 13 13
15 11 11 15 16 15 16 16 13 12 13 12 13 14 13 12 13 13 13 12 10 11 11 12 11 11 11 11 11 11 11 12 12 12 12 12 12 12 12 12 12 12 11 11
15 12 12 14 16 15 15 15 15 13 11 13 12 14 13 13 12 12 12 11 11 11 11 11 11 10 10 10 11 11 11 11 11 12 12 11 11 11 11 11 11 11 11 11
14 12 13 13 15 14 14 14 14 13 12 13 12 14 15 12 13 12 11 11 11 11 11 11 10 9 9 10 11 11 12 12 12 12 11 11 11 10 10 10 10 10 10 10
12 13 12 12 12 12 13 13 13 14 15 15 15 15 15 13 13 13 12 11 11 11 11 10 9 8 9 9 10 11 11 12 12 11 11 10 10 10 10 10 10 9 9 9
11 13 11 11 14 13 13 13 13 14 16 15 15 15 14 13 13 12 11 11 11 10 10 9 8 8 8 9 10 10 10 10 11 10 9 9 9 9 9 9 8 8 8 7
12 11 11 12 12 12 15 16 17 17 15 15 15 15 14 14 14 13 12 11 11 10 9 9 8 8 9 9 10 9 9 9 9 9 8 8 8 8 8 8 8 7 7 6
10 10 9 10 11 16 16 15 16 16 16 13 14 14 13 14 13 12 11 11 10 9 8 8 8 8 9 9 9 9 10 10 10 9 9 9 9 8 8 7 7 6 6 6
10 10 11 10 10 13 17 16 16 17 16 13 14 14 13 12 13 12 10 10 10 9 8 9 9 9 9 9 9 9 9 9 8 8 8 7 7 7 7 6 6 5 5 5
9 9 10 9 11 14 16 17 16 16 14 14 13 12 11 11 12 11 11 9 8 9 10 9 9 9 9 8 9 9 8 8 7 7 7 7 6 6 5 5 5 4 4 4
9 9 10 10 9 11 13 16 15 17 15 13 13 12 10 11 11 10 8 8 8 8 9 9 9 8 8 8 8 7 7 6 6 6 6 6 5 5 4 4 4 4 3 3
11 8 8 8 10 12 13 14 16 14 13 14 13 12 10 11 10 8 8 6 6 6 7 8 8 8 8 8 9 7 6 6 6 6 5 4 4 4 4 3 3 3 2 2
12 12 10 11 11 13 13 14 15 12 13 14 13 13 11 10 8 7 6 5 6 7 7 8 8 6 7 7 7 6 5 5 5 5 4 3 3 3 3 2 2 2 1 0
12 10 11 13 13 12 12 12 11 12 12 14 13 11 9 10 8 7 5 5 5 6 6 7 6 6 5 6 6 6 5 5 4 4 3 2 2 2 2 1 1 0 -0 -1
11 10 11 10 11 12 12 11 12 12 11 13 12 10 10 9 7 7 6 5 6 6 6 6 6 5 4 5 5 4 4 4 3 3 2 2 1 1 1 0 -0 -1 -1 -1
8 10 11 12 15 13 13 14 13 11 11 11 11 11 9 8 7 6 6 6 6 6 6 6 5 5 4 4 4 3 3 3 3 2 1 1 1 0 0 -0 -1 -1 -1 -2

GFSCGP_925_temp_111.txt.gz
Temp
16 18 18 18 17 17 17 16 16 18 18 17 18 18 18 19 18 18 19 19 19 19 20 19 18 18 18 17 17 17 17 17 16 17 17 17 17 16 16 17 17 16 17 17
17 18 18 17 17 17 17 17 17 17 18 17 17 17 17 18 17 17 17 17 17 17 18 18 18 18 18 17 17 17 17 18 17 16 16 16 16 16 17 16 16 16 16 16
17 19 18 18 18 18 18 17 17 16 16 16 16 17 17 17 16 17 17 15 16 15 16 17 17 18 17 17 17 16 17 17 16 20 17 16 15 14 14 14 14 14 15 15
16 18 18 18 17 17 16 17 17 16 16 16 16 15 16 16 16 16 16 16 15 15 15 15 16 18 17 17 16 17 18 17 17 18 18 18 15 13 12 13 12 13 13 12
18 17 17 17 19 17 18 17 16 15 15 15 15 14 16 15 14 13 15 16 16 16 16 16 16 17 18 17 16 17 17 17 17 17 18 15 14 12 10 9 8 10 11 11
16 15 16 18 17 17 17 16 15 14 14 16 14 13 16 14 13 13 15 15 15 16 17 17 16 17 17 16 16 16 16 16 15 15 14 14 12 11 9 9 9 10 11 11
14 17 16 16 17 17 16 15 15 17 15 16 15 15 15 12 14 14 14 14 14 14 15 16 17 17 16 16 16 15 15 14 14 14 13 13 12 12 12 12 10 11 10 9
14 17 16 16 17 17 15 14 14 14 14 15 15 15 14 13 14 15 14 13 13 13 13 14 16 16 16 15 15 15 14 14 14 13 13 12 13 13 12 12 12 11 10 10
14 15 15 16 16 16 16 15 14 13 12 14 14 16 13 13 14 14 14 13 12 12 12 12 13 15 15 15 15 14 14 14 14 14 14 13 13 14 12 13 12 12 11 11
15 14 15 15 15 15 16 14 15 13 13 15 16 15 15 12 12 13 13 12 12 12 12 11 11 12 13 14 14 14 14 14 15 13 13 13 13 13 12 12 12 11 10 10
14 14 15 15 16 16 16 16 15 14 14 15 15 16 15 13 12 13 13 13 11 11 11 11 11 10 10 10 11 12 13 12 13 12 13 13 12 12 12 11 11 10 11 11
14 12 13 16 15 14 15 15 14 15 15 14 14 16 14 13 12 13 13 13 12 11 11 11 11 11 10 9 9 9 10 11 11 11 11 11 11 11 11 11 11 11 11 10
14 13 14 17 16 15 15 15 15 13 12 14 15 18 14 13 13 13 13 13 12 12 12 11 11 10 10 9 9 9 9 9 10 11 11 10 10 10 10 10 10 10 10 10
14 12 14 16 16 14 14 14 14 14 14 15 15 16 16 14 13 13 13 12 12 12 11 11 11 10 9 9 9 9 9 10 10 11 10 10 10 10 10 10 10 10 10 10
13 14 11 12 13 12 13 14 13 14 14 16 16 15 16 14 14 13 12 12 12 12 11 11 10 10 9 8 8 9 10 10 11 10 10 9 10 10 9 9 9 9 9 8
11 14 11 12 13 12 13 13 13 13 14 14 14 15 15 13 13 13 12 12 12 11 11 10 10 9 9 8 8 9 9 10 10 10 9 9 9 9 9 9 8 8 8 7
12 12 12 14 12 12 16 15 14 15 15 16 16 16 13 13 13 13 12 12 12 11 10 10 9 8 8 8 9 9 9 10 10 9 9 9 9 9 8 8 7 7 6 6
10 11 10 12 12 17 17 15 16 16 16 14 14 14 14 14 13 13 12 12 12 11 10 9 8 7 8 8 9 9 9 9 9 8 8 7 7 7 7 6 6 6 5 5
10 10 12 12 12 14 17 15 15 16 17 14 14 14 13 12 13 14 11 11 12 11 10 9 9 8 8 8 8 8 7 7 7 7 7 7 7 7 6 6 5 5 5 5
9 9 11 10 12 15 17 16 16 16 16 14 14 13 12 12 15 15 11 11 10 10 9 8 8 8 8 8 8 8 7 7 7 7 7 6 6 6 5 5 5 4 4 3
10 10 11 11 11 13 13 15 15 17 18 13 13 13 11 13 14 12 9 9 9 8 8 9 8 8 8 8 8 7 7 6 6 6 6 5 5 4 4 4 3 3 3 2
11 10 10 9 11 13 13 14 16 16 14 14 12 12 11 11 10 9 8 8 7 7 7 8 7 7 7 7 8 6 6 5 5 5 4 4 3 3 3 3 2 2 1 1
14 13 12 12 13 14 13 14 13 12 14 14 13 12 12 11 10 9 8 7 7 6 6 7 7 6 6 7 7 6 5 5 5 4 3 3 3 2 2 2 1 1 0 -1
11 10 12 13 14 13 13 13 12 12 13 13 12 12 10 11 10 8 7 6 6 6 5 6 6 5 5 6 6 6 5 4 4 3 3 2 2 2 1 1 0 -1 -1 -1
11 10 11 11 12 12 12 12 12 13 11 12 12 12 11 10 9 8 7 6 6 5 5 6 5 5 5 5 5 5 4 4 3 2 2 1 1 1 0 -0 -1 -2 -2 -1
9 11 13 14 14 16 14 15 13 12 12 12 11 11 10 10 9 8 7 7 6 5 5 5 5 5 4 5 4 4 4 3 3 2 1 1 0 -0 -0 -1 -1 -1 -1 -2

GFSCGP_925_temp_114.txt.gz
Temp
22 23 23 22 22 21 21 21 21 22 22 20 21 20 21 20 21 21 21 23 24 23 24 23 22 21 20 19 19 19 18 19 18 17 16 16 16 17 17 18 17 17 16 17
23 23 22 21 21 21 22 22 22 22 20 20 20 20 20 20 20 20 20 20 21 22 24 24 22 21 20 20 18 18 18 18 18 16 17 16 16 15 16 16 16 15 16 17
22 23 21 21 22 22 23 21 20 20 20 20 19 20 20 21 20 20 20 20 21 21 21 23 22 22 21 20 19 19 18 18 17 16 16 16 15 14 13 13 14 15 16 15
22 21 21 22 22 21 22 21 20 19 20 20 19 21 21 20 18 18 19 18 19 20 21 22 22 21 21 20 19 19 18 18 17 16 16 15 15 13 13 14 14 14 14 15
22 21 20 21 22 20 21 19 19 19 20 20 20 18 20 18 14 15 16 16 17 18 20 22 23 21 21 20 18 18 17 16 16 16 16 15 15 14 12 13 12 11 11 13
21 20 20 21 21 20 20 20 19 19 20 22 18 17 19 14 13 13 14 15 15 15 18 21 21 21 21 20 18 17 17 16 16 15 15 15 14 12 11 9 9 10 10 10
21 21 20 19 21 21 21 22 20 21 20 20 19 19 17 14 14 13 14 14 14 14 15 17 21 21 20 18 17 17 16 14 15 15 14 13 13 12 11 9 9 10 10 11
20 22 20 20 20 19 19 19 17 17 19 18 19 16 17 14 16 15 15 14 13 13 13 14 16 18 18 17 16 15 14 13 14 14 13 13 13 12 12 10 9 10 10 10
20 20 20 19 19 19 20 19 17 15 16 17 19 21 17 16 18 16 15 13 12 12 12 12 13 15 15 14 14 14 14 14 13 13 14 13 13 12 12 11 11 11 10 10
19 19 19 19 19 19 20 18 19 19 17 18 21 20 17 16 17 17 17 14 12 11 11 11 11 12 12 13 14 14 14 13 13 12 13 13 12 12 12 12 11 11 10 10
19 18 21 19 20 20 20 20 19 19 19 19 20 21 19 18 16 16 17 15 12 11 11 11 10 9 9 10 11 12 12 11 12 13 13 13 12 12 11 11 11 10 10 9
18 19 20 20 19 18 19 19 19 20 19 19 18 21 19 18 17 17 16 15 13 12 12 13 11 11 10 9 10 9 10 10 10 10 11 10 10 10 10 10 10 10 10 9
18 19 20 21 19 19 19 19 18 18 18 20 19 21 19 18 18 16 16 16 14 14 13 13 13 13 11 9 8 8 9 9 10 10 9 9 9 9 9 9 9 9 9 9
17 18 19 20 21 19 19 19 19 18 19 21 21 21 20 18 18 17 15 16 15 14 13 14 14 12 12 11 11 10 10 10 10 10 10 9 9 9 9 9 9 9 9 9
18 18 18 19 19 18 18 18 18 18 20 20 20 19 20 19 18 17 16 16 16 15 13 14 14 14 13 12 11 11 10 10 10 10 10 9 9 9 9 8 8 8 8 8
16 18 17 18 18 16 17 18 18 18 18 19 19 19 20 18 18 18 17 16 16 15 14 14 14 13 13 12 11 11 11 11 11 10 9 9 9 8 8 8 8 8 8 8
17 17 18 20 18 18 20 20 19 19 19 21 20 21 19 18 18 18 17 17 16 15 15 14 14 13 12 12 12 11 11 11 11 10 10 9 9 8 8 8 8 7 7 7
16 16 16 18 19 20 20 19 19 19 20 20 19 18 18 19 19 18 18 17 17 15 15 14 13 12 11 11 10 10 11 10 10 10 9 9 9 8 8 7 7 7 7 6
16 17 17 17 18 21 21 18 19 19 22 21 20 19 18 17 17 18 18 18 17 16 15 14 13 12 11 11 10 10 10 10 10 9 9 8 8 7 7 7 6 6 6 6
13 15 16 16 17 19 20 18 18 19 20 19 19 19 18 17 19 21 18 17 17 15 14 13 12 11 11 10 10 10 10 10 9 8 7 7 7 7 6 6 5 5 5 4
14 15 16 17 17 19 20 18 17 20 21 18 19 19 18 18 20 18 17 16 16 15 13 12 11 11 11 9 10 10 9 9 7 7 6 6 6 5 5 4 4 4 4 4
17 16 15 17 16 17 18 17 19 21 18 18 18 18 18 18 16 15 15 15 14 13 12 11 11 11 9 9 10 10 9 7 6 6 5 5 5 4 4 4 3 3 3 3
18 19 19 18 20 19 18 20 20 18 20 18 19 18 17 17 16 15 14 13 13 12 11 11 11 10 9 9 10 9 7 6 5 5 5 4 4 3 3 3 3 3 2 2
16 15 17 17 21 18 17 18 17 18 18 18 18 18 17 17 17 15 14 13 12 11 11 10 10 9 9 8 8 8 6 5 5 5 4 4 4 3 3 2 2 2 2 2
18 15 18 18 19 17 17 17 19 18 17 17 17 17 17 17 17 15 14 12 11 10 10 9 10 9 8 7 7 6 5 5 5 5 4 3 3 3 2 2 1 1 1 -0
15 18 18 20 21 22 22 19 19 17 17 17 17 17 16 16 16 14 13 12 11 10 9 9 9 9 7 7 6 5 4 5 4 4 4 3 3 2 2 2 2 0 -1 -2

GFSCGP_925_temp_117.txt.gz
Temp
25 25 25 24 24 24 24 24 24 25 24 22 23 22 22 23 22 22 22 23 25 26 27 26 25 25 24 21 19 18 19 20 21 20 18 17 17 18 19 19 20 19 19 19
25 25 25 24 24 24 24 24 24 24 24 23 23 22 23 23 22 21 22 22 23 24 25 26 25 25 24 22 19 17 18 19 19 19 17 17 17 18 19 19 19 18 18 17
24 25 24 24 24 24 24 23 22 22 23 23 23 22 22 22 21 19 19 20 21 22 23 25 25 24 24 22 20 19 17 19 19 18 16 16 16 16 16 17 17 16 16 16
25 24 23 24 24 23 23 23 21 22 22 23 23 22 22 21 19 18 18 17 19 20 22 24 24 24 24 23 21 19 19 19 19 17 15 15 15 14 14 14 14 15 15 15
24 23 23 23 23 23 23 23 21 22 22 23 23 21 22 20 16 16 16 16 16 16 18 21 24 24 24 24 23 19 18 17 17 16 16 16 15 15 14 14 13 13 13 14
23 23 22 23 23 23 23 24 22 22 23 22 22 19 21 17 15 14 15 14 14 14 15 18 23 24 23 23 20 17 17 15 16 16 15 15 15 14 13 11 11 10 10 10
25 24 23 22 23 24 23 23 21 22 22 22 22 20 19 18 16 15 14 13 13 13 13 15 24 23 23 21 18 17 16 16 15 15 14 14 14 14 13 12 10 10 10 9
23 23 23 23 22 21 22 21 19 16 20 20 22 19 19 19 18 17 14 13 12 12 12 13 17 19 19 18 15 15 15 14 15 15 13 14 15 13 11 10 10 9 10 10
22 23 23 21 22 22 22 22 20 17 19 19 22 22 21 21 21 19 16 13 12 12 12 12 12 15 15 14 14 14 14 13 13 13 13 12 12 12 11 11 10 10 10 10
22 21 23 22 21 21 22 21 21 21 18 20 24 22 21 21 19 19 16 13 12 12 11 11 11 11 11 13 14 14 13 13 13 13 13 12 12 12 12 11 11 10 10 10
22 21 23 22 22 22 22 23 23 21 21 20 22 22 22 21 19 19 17 13 12 11 11 10 10 10 10 11 13 12 11 12 12 12 12 12 12 11 11 11 10 10 9 9
21 21 22 23 22 21 21 22 22 21 21 22 21 22 22 21 20 19 16 15 14 13 12 11 11 10 9 8 9 11 10 10 10 10 10 10 10 10 10 9 9 10 9 9
21 22 22 22 21 21 22 22 21 21 21 22 21 23 22 21 20 18 18 15 14 14 14 13 13 11 10 9 10 10 10 10 10 11 10 9 9 10 9 10 9 10 9 9
18 21 21 23 23 22 21 22 21 21 21 23 23 23 22 21 20 19 18 16 14 14 15 15 14 14 13 11 12 12 11 11 11 10 10 10 10 10 10 11 11 11 11 10
19 20 21 22 22 21 21 21 21 20 21 21 23 22 23 21 21 19 18 18 17 15 15 16 16 15 13 13 12 12 12 12 11 11 10 10 10 10 10 10 10 10 10 10
19 20 20 20 22 20 20 21 21 21 21 21 22 22 23 22 21 20 19 18 17 17 16 16 16 16 15 13 13 12 12 12 12 11 11 10 10 10 10 10 9 9 9 9
20 20 20 22 22 22 22 23 22 22 22 22 22 23 22 20 20 20 19 19 18 17 16 16 16 16 15 14 14 13 13 12 12 11 11 11 10 10 10 9 9 8 9 8
19 19 19 20 22 21 22 22 22 22 23 23 22 21 21 21 21 21 20 19 18 17 17 17 16 15 14 14 13 13 13 13 12 12 11 11 10 9 9 9 9 8 8 8
18 19 19 19 21 23 23 21 20 21 23 23 22 22 21 20 20 20 20 20 19 18 17 16 15 14 14 13 13 13 12 12 12 11 11 10 10 9 9 8 8 7 7 7
17 18 19 20 18 20 22 21 21 21 21 23 23 22 20 19 19 22 20 20 19 18 17 16 15 14 14 13 13 12 12 12 11 10 9 9 9 8 8 7 6 6 6 6
16 17 17 19 19 21 23 20 20 20 21 21 22 22 21 19 21 21 20 19 19 18 16 15 14 14 13 12 12 12 12 11 10 9 8 8 8 7 6 6 6 6 5 5
19 18 18 20 19 19 22 19 21 22 21 21 21 21 21 21 18 19 20 19 18 17 15 14 14 14 13 12 12 12 12 9 9 8 8 7 7 6 6 5 5 5 5 5
20 22 21 21 21 21 21 21 22 22 22 21 21 21 20 20 19 18 18 18 17 16 15 14 14 13 12 12 12 12 10 9 8 8 7 7 6 5 5 5 5 5 4 4
20 22 20 19 23 21 20 21 20 20 21 22 21 21 20 20 20 18 17 17 16 15 14 14 14 12 12 12 12 11 9 8 8 8 7 6 6 5 5 4 4 4 4 4
22 20 20 20 22 20 20 21 21 20 20 20 20 20 20 20 20 19 18 17 16 15 14 13 13 12 11 11 11 9 8 8 8 7 7 6 5 5 5 4 3 3 3 1
19 20 21 22 24 23 23 22 21 19 20 20 19 19 19 19 19 19 18 16 15 14 13 13 12 12 11 10 9 8 7 7 7 7 6 6 5 4 4 4 4 2 1 1